Wind_Speed
9 9 11 13 15 18 19 18 18 18 18 19 21 23 24 24 22 22 22 21 21 21 21 22 22 23 23 23 23 23 24 24 23 23 22 21 20 18 18 18 19 20 20 20 20 19 18 18 18
8 8 11 13 15 17 18 19 17 16 16 16 19 22 22 22 23 23 22 21 21 21 22 23 23 24 24 23 23 24 24 24 23 22 22 22 21 20 19 20 21 22 22 22 22 22 21 21 20
4 6 8 11 13 14 16 14 13 13 14 14 17 21 22 21 21 23 24 23 24 25 25 25 26 26 26 25 25 25 25 24 23 22 22 23 23 22 22 23 24 24 25 25 24 23 23 23 23
1 2 5 7 9 11 11 8 11 11 10 11 14 17 19 20 20 22 24 24 24 25 27 27 27 27 27 27 26 26 26 26 25 25 25 25 26 25 25 25 25 25 25 25 25 24 24 24 24
3 2 4 4 6 9 6 6 8 7 6 8 13 16 18 20 20 20 22 23 23 23 25 27 27 27 28 28 28 28 28 28 28 28 28 28 28 27 27 27 26 26 25 25 25 25 25 24 24
3 3 4 4 5 6 4 5 8 9 8 10 15 19 21 22 21 20 22 24 25 26 26 28 29 29 30 31 32 32 32 32 32 32 32 31 31 30 29 29 28 28 28 27 27 27 26 26 27
4 5 6 8 9 6 5 6 9 11 13 14 18 22 23 24 23 23 25 28 30 31 31 31 32 33 34 34 35 36 36 36 35 34 33 33 33 32 31 30 29 29 30 30 30 30 29 30 30
7 8 8 10 11 10 10 11 13 15 19 21 22 24 26 28 28 28 30 33 35 35 34 34 34 34 34 34 35 36 36 36 35 35 34 34 33 32 31 30 29 29 30 30 30 30 30 30 29
7 8 8 9 12 13 14 16 17 19 22 24 25 26 28 29 30 31 32 34 35 35 34 34 33 31 30 30 31 32 33 34 35 35 35 34 32 31 30 29 29 29 29 29 29 30 30 30 29
6 6 7 8 10 12 14 16 16 18 19 21 23 23 25 27 28 28 28 30 32 32 32 31 31 29 27 28 29 31 32 34 35 35 35 34 33 31 30 30 29 29 29 29 29 29 29 29 30
6 6 7 7 9 12 15 16 15 16 15 16 18 20 23 25 27 28 28 27 28 29 30 30 31 31 30 30 30 31 32 34 36 36 36 36 36 35 34 33 33 32 31 31 31 31 31 30 29
8 8 9 9 11 14 17 18 18 18 17 17 18 21 24 27 29 31 32 33 31 31 32 34 34 35 35 35 34 34 34 36 37 38 39 40 39 38 36 35 36 35 35 35 35 35 35 35 34
13 12 12 13 15 18 20 21 21 20 20 21 22 24 26 28 30 32 34 35 36 36 36 37 38 39 40 40 39 39 39 39 40 40 41 42 41 40 39 39 38 38 38 38 39 38 38 39 39
14 14 14 15 17 19 22 23 22 20 20 21 22 23 25 27 28 30 31 33 35 36 36 37 39 42 43 44 43 43 43 43 44 44 44 45 45 44 43 43 42 42 41 41 41 40 41 41 41
12 12 13 14 16 18 19 19 19 18 18 20 21 23 25 26 27 30 32 34 36 37 39 40 40 41 43 45 46 46 46 46 47 47 48 48 48 48 47 47 47 46 46 45 45 44 44 44 44
13 13 12 13 14 16 18 18 19 19 20 22 25 28 30 31 32 34 36 37 40 42 44 45 46 46 47 49 51 52 52 53 53 53 53 53 53 53 52 52 52 52 51 51 51 50 49 49 48
13 13 13 14 17 19 21 23 23 22 23 25 29 32 34 35 36 38 39 41 43 45 47 48 49 51 52 52 54 55 56 57 58 59 60 60 60 60 59 59 59 59 58 57 57 56 55 54 54
14 15 17 19 21 23 26 27 27 27 29 30 32 34 36 38 40 41 42 43 44 46 47 48 50 51 52 53 54 55 57 59 60 61 62 63 64 65 65 65 65 65 64 63 63 62 62 61 60
14 16 19 21 23 25 28 29 30 31 33 34 36 38 39 41 42 43 44 46 48 49 50 53 54 56 57 58 58 58 60 61 63 64 64 64 64 64 66 67 69 69 68 68 67 67 66 66 65
15 17 19 21 23 26 28 30 31 34 37 40 43 44 45 46 47 47 49 52 53 54 56 59 61 63 64 64 65 65 65 65 66 67 68 68 68 67 67 67 68 68 69 68 68 67 67 67 67
19 20 21 22 23 27 31 33 36 39 43 46 48 50 52 53 54 56 58 60 62 62 63 64 67 68 69 70 72 72 71 71 72 72 72 73 74 74 73 72 71 71 71 71 70 69 68 66 65
19 20 22 24 26 30 35 39 42 44 47 51 53 56 58 61 63 66 67 68 69 69 70 71 72 73 74 75 77 78 77 76 76 77 76 77 78 78 79 78 77 76 75 75 74 73 72 69 67
19 22 25 28 31 34 37 42 46 48 51 53 56 59 63 66 70 73 73 74 75 75 75 76 76 77 79 79 80 80 79 78 78 79 78 77 77 79 80 81 81 79 78 78 79 78 76 75 73
22 25 28 33 37 39 43 48 53 56 58 61 63 65 68 71 74 76 77 79 80 81 81 80 80 81 82 81 80 78 74 72 71 71 73 73 74 76 79 81 81 81 80 80 81 80 80 79 77
25 28 33 39 42 45 49 54 59 63 66 69 70 70 72 73 75 77 79 81 82 83 84 84 83 81 79 74 68 62 58 56 55 56 58 61 64 68 71 76 78 78 78 79 80 80 81 81 79
28 33 38 43 47 50 55 60 65 69 72 73 73 73 72 73 76 78 80 82 83 83 84 83 80 74 66 58 50 45 43 44 46 49 52 56 59 62 65 68 70 70 70 69 69 70 72 75 76
32 38 43 48 53 58 61 65 69 73 75 74 72 70 70 73 76 78 80 80 80 79 77 73 65 55 47 40 36 36 39 42 44 45 47 49 52 55 60 66 68 66 64 63 61 58 58 62 64
37 44 49 54 58 62 65 69 72 75 73 70 68 67 69 72 73 73 71 67 63 60 55 48 41 35 31 31 32 34 37 38 37 37 39 42 44 44 44 52 65 68 63 59 56 52 50 51 54
42 48 53 56 59 63 68 72 74 73 72 69 67 66 66 64 62 59 55 53 51 46 40 35 31 29 29 29 30 32 34 34 35 36 38 40 40 38 37 37 46 61 63 59 56 51 48 48 48
46 51 55 58 61 65 70 74 74 72 68 65 63 61 59 58 55 51 51 48 44 38 33 29 27 26 26 26 28 30 32 33 33 34 36 37 35 31 29 28 30 43 56 59 57 53 51 49 48
Wind_Direction
250 238 234 233 234 239 241 239 236 237 242 243 241 239 235 237 242 246 244 248 251 255 260 265 269 273 277 281 283 285 286 287 286 282 276 266 261 262 266 270 269 266 264 263 263 263 264 266 267
255 245 240 234 235 241 242 237 232 232 235 234 235 235 232 235 241 246 251 255 258 260 264 267 270 273 275 277 280 282 282 282 281 276 271 264 260 261 265 267 268 266 263 261 261 261 263 265 266
249 244 246 245 244 247 251 247 242 233 233 227 231 236 236 237 244 252 256 260 261 262 263 265 268 271 273 275 277 277 278 278 274 268 265 263 264 267 269 268 266 264 262 260 259 258 259 260 261
303 285 256 255 259 266 266 254 233 229 236 234 239 244 249 249 250 254 258 264 267 268 269 269 270 272 274 276 276 275 275 274 270 266 265 266 267 268 268 267 266 264 262 260 258 258 257 258 258
305 315 306 311 301 299 295 254 256 251 261 270 267 262 258 258 260 262 263 266 268 269 270 272 273 274 276 277 276 275 273 271 269 267 267 266 266 267 266 265 263 261 259 258 256 256 256 256 256
310 295 300 298 301 312 303 274 277 284 278 264 263 266 266 265 268 272 273 271 269 268 268 271 275 276 276 276 275 275 273 271 269 268 268 268 267 266 264 263 261 260 258 256 254 253 253 254 255
280 285 287 295 297 302 292 279 275 279 278 271 269 271 275 279 281 282 279 277 276 276 278 279 279 279 278 277 275 272 270 269 269 269 269 268 267 266 263 262 261 260 258 256 255 254 254 254 256
285 282 283 289 290 283 269 264 266 273 276 276 275 278 282 285 286 285 283 282 283 284 286 285 283 281 280 278 274 270 267 266 265 265 264 263 262 261 260 259 257 256 256 256 256 256 255 256 257
292 287 287 280 277 277 274 272 271 272 276 283 289 292 294 293 292 291 289 288 287 286 284 282 280 278 276 276 274 270 265 262 260 260 259 257 255 255 255 254 253 253 254 255 256 256 256 255 255
307 302 290 284 282 281 277 275 280 285 292 299 302 301 296 293 290 288 284 282 282 283 282 281 280 276 271 269 269 269 267 265 263 260 257 254 252 251 251 251 251 252 252 253 253 253 254 254 254
339 321 312 306 298 290 289 292 296 298 304 304 304 301 298 295 293 291 288 284 280 278 277 275 274 274 271 266 264 265 266 266 264 261 257 254 252 251 249 249 250 251 252 251 252 252 252 252 252
336 330 325 318 307 301 300 300 302 304 305 302 296 290 286 286 287 288 287 285 282 278 275 273 272 270 269 268 267 265 264 263 262 261 259 257 255 254 252 250 250 250 250 250 250 251 251 252 252
327 332 327 319 311 306 304 307 311 311 307 303 299 295 291 288 286 286 286 286 284 281 277 274 273 271 270 269 268 266 263 260 258 258 258 258 257 256 254 252 252 252 252 252 253 254 253 253 253
330 334 330 322 316 312 313 319 324 325 319 314 310 306 302 298 296 295 294 292 290 287 284 281 278 276 275 274 272 271 269 265 262 259 257 256 255 255 255 255 255 254 253 253 254 255 256 256 256
337 340 337 330 327 327 329 333 339 339 332 325 318 312 307 302 298 295 294 291 290 289 288 286 285 282 280 278 277 275 273 271 268 265 262 260 258 256 255 255 256 255 254 253 253 253 254 255 256
5 8 7 359 352 348 346 347 346 342 331 320 314 310 307 303 298 295 291 288 286 286 284 283 282 280 278 277 277 277 276 274 272 270 267 264 261 258 257 256 256 256 255 254 254 255 255 255 255
16 12 8 3 356 347 343 343 341 335 326 317 314 311 308 304 300 298 294 290 287 285 282 280 279 277 276 275 275 274 273 273 271 270 269 267 265 263 261 259 257 257 256 255 254 254 255 255 255
11 5 360 358 351 342 338 338 336 331 326 321 318 315 310 307 304 301 297 293 290 286 283 280 279 278 277 275 274 274 273 272 270 269 268 267 265 264 262 260 259 259 258 257 255 255 254 254 254
5 356 351 349 344 338 337 337 335 331 326 322 318 316 312 307 303 299 295 292 289 286 283 282 281 280 277 276 275 274 273 271 270 269 269 267 265 264 264 263 261 260 259 258 257 256 255 254 254
355 349 345 343 341 337 337 336 333 329 326 323 319 316 312 308 303 299 294 291 288 285 282 281 281 281 278 276 274 273 272 269 267 267 268 268 267 265 263 262 262 261 259 258 258 257 256 255 255
344 343 343 343 342 337 335 333 330 327 326 324 320 316 312 308 304 300 295 292 289 287 284 283 282 281 280 278 276 275 273 273 271 268 266 266 267 266 264 263 262 260 259 258 257 256 255 254 254
340 342 343 344 342 337 332 328 326 324 324 321 317 314 311 307 303 300 298 295 292 289 288 286 286 285 283 281 280 280 279 276 274 271 269 268 266 265 264 263 262 261 259 259 258 257 256 254 253
342 341 340 336 332 328 323 318 316 317 316 314 311 309 306 303 300 298 297 295 292 290 288 287 286 286 285 285 284 284 283 282 280 277 274 270 267 265 263 263 262 260 259 258 257 256 255 254 252
341 337 332 327 325 323 319 315 312 312 311 309 308 307 304 302 300 299 297 293 290 288 287 287 287 287 288 288 289 288 286 284 281 279 276 273 269 265 262 259 258 258 257 256 255 255 254 253 253
333 330 327 327 326 323 319 315 314 313 311 309 308 306 305 303 300 297 293 291 289 288 288 289 290 291 292 292 292 290 287 285 282 279 276 273 269 264 260 257 254 253 254 254 253 252 252 252 251
328 327 328 326 324 321 319 317 316 313 311 310 308 306 305 302 298 295 294 294 293 292 291 291 293 294 293 293 291 290 289 289 289 286 282 277 271 265 260 256 252 247 246 247 250 250 250 250 250
328 327 327 325 323 322 320 317 314 314 314 312 308 305 302 298 295 295 297 299 299 297 296 296 296 295 294 293 293 294 297 299 300 298 297 293 285 275 264 254 249 246 243 241 243 245 248 250 248
329 329 328 327 324 322 320 317 317 317 315 311 306 303 300 299 300 303 306 307 307 306 304 302 301 301 299 298 299 301 304 307 308 307 307 304 299 291 279 260 245 241 240 240 241 243 247 247 245
329 330 329 326 324 321 320 319 320 318 316 312 309 308 307 309 312 316 318 319 318 315 311 308 307 306 303 302 303 307 309 309 308 309 311 311 304 295 285 274 251 236 232 234 236 239 244 245 244
330 330 328 326 324 322 320 321 323 321 318 315 314 315 316 319 323 326 327 327 326 323 319 315 314 311 308 307 307 310 312 310 308 310 314 317 312 303 293 279 257 235 228 228 230 233 237 239 240
Height
5848 5848 5848 5849 5850 5850 5851 5852 5852 5853 5854 5855 5856 5857 5858 5860 5861 5863 5862 5861 5862 5862 5862 5862 5861 5861 5860 5859 5859 5858 5857 5856 5855 5854 5854 5854 5854 5853 5853 5853 5853 5853 5853 5853 5854 5854 5854 5854 5855
5846 5846 5847 5847 5847 5847 5848 5848 5848 5849 5850 5850 5851 5853 5855 5856 5857 5857 5858 5858 5858 5858 5857 5857 5857 5856 5855 5854 5854 5853 5852 5851 5851 5850 5850 5850 5850 5849 5849 5848 5848 5848 5848 5848 5849 5849 5849 5850 5850
5844 5845 5846 5846 5846 5847 5847 5847 5847 5847 5847 5848 5849 5850 5852 5854 5854 5854 5855 5854 5853 5852 5852 5852 5851 5851 5850 5849 5848 5848 5847 5846 5846 5845 5845 5845 5845 5845 5844 5844 5843 5843 5843 5844 5844 5844 5845 5845 5846
5844 5845 5846 5846 5845 5846 5846 5846 5845 5846 5847 5848 5848 5849 5850 5851 5852 5852 5851 5850 5849 5848 5847 5847 5846 5845 5845 5844 5843 5842 5841 5841 5840 5840 5840 5839 5839 5839 5838 5838 5838 5838 5838 5838 5839 5839 5840 5840 5841
5845 5845 5845 5845 5845 5846 5846 5845 5844 5846 5847 5847 5847 5846 5847 5847 5847 5848 5848 5847 5846 5844 5843 5841 5841 5840 5839 5838 5837 5836 5835 5835 5834 5834 5834 5833 5833 5832 5832 5832 5832 5832 5832 5833 5833 5834 5835 5835 5836
5845 5845 5845 5844 5845 5845 5845 5844 5844 5844 5844 5844 5843 5842 5842 5842 5843 5843 5842 5841 5840 5839 5838 5837 5835 5835 5834 5832 5831 5829 5829 5828 5828 5827 5827 5826 5826 5826 5826 5826 5826 5826 5826 5827 5828 5828 5829 5830 5830
5845 5845 5844 5844 5845 5846 5845 5843 5843 5842 5841 5841 5841 5840 5839 5839 5839 5838 5836 5834 5833 5832 5831 5831 5829 5828 5826 5825 5824 5822 5821 5820 5820 5819 5819 5819 5818 5818 5818 5819 5819 5819 5820 5820 5821 5822 5823 5823 5824
5844 5845 5844 5844 5844 5843 5842 5841 5840 5839 5838 5838 5838 5836 5835 5835 5835 5833 5831 5829 5827 5826 5824 5822 5821 5819 5818 5816 5815 5814 5813 5812 5811 5811 5810 5810 5810 5810 5810 5811 5811 5812 5812 5813 5814 5815 5816 5817 5818
5842 5844 5842 5842 5841 5840 5839 5838 5838 5837 5834 5834 5834 5833 5832 5831 5829 5827 5825 5823 5820 5818 5816 5814 5813 5812 5810 5808 5807 5805 5805 5804 5803 5802 5802 5802 5802 5802 5802 5803 5803 5803 5804 5805 5806 5807 5808 5809 5810
5842 5842 5841 5840 5839 5837 5835 5835 5835 5835 5834 5833 5831 5829 5827 5825 5823 5821 5819 5816 5813 5811 5809 5807 5805 5804 5803 5802 5800 5798 5797 5796 5796 5795 5794 5794 5794 5794 5794 5795 5795 5795 5796 5797 5798 5799 5800 5801 5802
5841 5841 5840 5839 5837 5834 5833 5833 5834 5833 5833 5831 5828 5825 5822 5819 5816 5813 5811 5809 5807 5805 5803 5801 5799 5797 5796 5795 5793 5792 5791 5789 5788 5787 5786 5786 5785 5785 5785 5786 5786 5787 5788 5789 5790 5791 5792 5793 5795
5840 5840 5839 5837 5835 5833 5832 5831 5832 5831 5830 5829 5826 5823 5819 5815 5812 5808 5805 5802 5801 5799 5797 5794 5792 5790 5788 5786 5785 5784 5783 5781 5780 5779 5778 5777 5777 5777 5777 5778 5778 5778 5779 5780 5781 5783 5784 5785 5787
5840 5839 5838 5836 5834 5831 5829 5829 5830 5828 5826 5824 5821 5817 5814 5810 5806 5803 5799 5796 5794 5792 5789 5787 5785 5782 5779 5777 5775 5774 5773 5771 5770 5769 5769 5768 5767 5767 5768 5768 5769 5769 5770 5771 5771 5773 5775 5776 5778
5839 5838 5836 5834 5831 5829 5827 5826 5826 5823 5820 5818 5814 5811 5807 5804 5801 5797 5793 5789 5786 5783 5781 5779 5777 5773 5770 5768 5766 5764 5763 5762 5760 5759 5758 5757 5756 5756 5757 5757 5758 5759 5760 5761 5762 5763 5765 5766 5768
5837 5836 5834 5832 5830 5828 5827 5826 5823 5820 5817 5814 5811 5807 5803 5800 5796 5791 5787 5783 5779 5775 5772 5769 5767 5764 5761 5758 5756 5754 5751 5749 5748 5747 5746 5746 5745 5744 5744 5745 5745 5746 5748 5750 5751 5752 5754 5756 5757
5835 5835 5833 5831 5829 5827 5826 5823 5821 5818 5815 5810 5806 5802 5798 5793 5789 5785 5780 5776 5772 5767 5763 5759 5755 5752 5750 5747 5744 5742 5739 5737 5735 5733 5732 5732 5732 5731 5731 5731 5732 5732 5734 5736 5738 5739 5741 5744 5746
5835 5833 5832 5830 5827 5824 5822 5820 5818 5814 5810 5805 5800 5796 5790 5786 5781 5776 5772 5767 5763 5758 5753 5748 5744 5740 5737 5734 5730 5727 5724 5722 5719 5718 5716 5716 5715 5715 5715 5716 5717 5718 5720 5721 5723 5725 5727 5730 5732
5834 5832 5830 5828 5826 5822 5819 5816 5812 5808 5803 5799 5794 5788 5783 5777 5772 5767 5762 5757 5752 5747 5741 5737 5732 5727 5723 5719 5716 5712 5709 5706 5703 5701 5699 5698 5697 5697 5697 5698 5700 5701 5703 5705 5707 5709 5711 5714 5716
5833 5831 5829 5826 5823 5819 5814 5811 5806 5802 5796 5791 5786 5780 5775 5768 5762 5756 5750 5744 5738 5733 5727 5722 5717 5712 5708 5704 5699 5696 5692 5689 5686 5683 5681 5679 5679 5679 5679 5680 5681 5683 5684 5686 5688 5691 5693 5696 5699
5831 5828 5825 5822 5818 5813 5808 5804 5800 5795 5789 5783 5777 5771 5765 5759 5752 5745 5737 5730 5723 5717 5710 5704 5699 5693 5689 5685 5680 5676 5672 5669 5668 5666 5663 5660 5660 5660 5661 5662 5662 5663 5665 5667 5669 5671 5674 5677 5680
5829 5826 5822 5819 5814 5808 5804 5799 5793 5787 5781 5775 5767 5760 5752 5745 5738 5730 5721 5713 5705 5698 5691 5684 5678 5672 5667 5662 5658 5655 5651 5647 5644 5643 5642 5641 5640 5639 5640 5642 5643 5643 5645 5647 5649 5651 5655 5658 5661
5827 5823 5819 5814 5810 5805 5800 5793 5786 5779 5772 5764 5755 5747 5738 5729 5720 5710 5701 5692 5683 5676 5668 5661 5654 5647 5641 5636 5631 5628 5624 5621 5619 5617 5617 5617 5616 5616 5616 5618 5620 5622 5624 5626 5629 5631 5635 5639 5643
5824 5820 5815 5810 5805 5800 5793 5785 5778 5770 5761 5752 5743 5733 5722 5712 5700 5689 5679 5669 5660 5651 5643 5636 5629 5622 5615 5609 5604 5600 5596 5592 5589 5587 5589 5590 5590 5590 5590 5592 5594 5598 5601 5604 5606 5609 5613 5617 5621
5820 5816 5812 5806 5800 5794 5785 5777 5766 5758 5748 5738 5728 5716 5704 5693 5681 5669 5658 5647 5637 5627 5619 5612 5606 5598 5591 5584 5578 5574 5570 5566 5562 5559 5559 5560 5561 5562 5562 5564 5567 5571 5575 5580 5583 5586 5589 5594 5599
5817 5813 5808 5801 5794 5786 5777 5766 5757 5744 5732 5721 5710 5698 5685 5673 5661 5649 5636 5625 5615 5606 5597 5589 5583 5576 5569 5562 5557 5552 5548 5544 5540 5536 5534 5533 5533 5533 5534 5535 5540 5545 5549 5553 5558 5562 5565 5569 5575
5811 5806 5801 5794 5786 5778 5768 5755 5744 5731 5718 5705 5692 5679 5667 5654 5640 5627 5614 5603 5593 5584 5575 5568 5562 5556 5549 5544 5540 5535 5532 5528 5523 5518 5514 5511 5509 5508 5508 5508 5513 5520 5526 5531 5534 5538 5542 5546 5552
5805 5799 5793 5785 5775 5765 5755 5743 5730 5716 5703 5690 5676 5663 5650 5635 5621 5609 5597 5586 5573 5563 5554 5547 5542 5537 5533 5530 5527 5523 5519 5514 5508 5502 5496 5490 5486 5483 5483 5485 5489 5497 5505 5511 5516 5519 5522 5526 5531
5800 5792 5784 5774 5761 5751 5742 5729 5716 5702 5690 5676 5662 5649 5633 5619 5606 5595 5582 5570 5557 5546 5537 5531 5526 5523 5520 5518 5515 5512 5507 5502 5496 5490 5484 5477 5469 5463 5460 5459 5464 5475 5485 5494 5499 5503 5507 5511 5516
5793 5785 5775 5764 5750 5737 5724 5716 5701 5686 5671 5656 5642 5628 5614 5603 5592 5580 5569 5557 5546 5535 5528 5522 5518 5515 5512 5509 5506 5502 5497 5492 5486 5480 5473 5465 5457 5450 5445 5442 5442 5452 5466 5476 5484 5489 5493 5497 5502
5785 5776 5766 5755 5743 5728 5712 5701 5683 5668 5652 5638 5625 5613 5601 5591 5579 5569 5558 5548 5538 5530 5523 5517 5513 5509 5506 5502 5498 5494 5489 5483 5478 5472 5464 5456 5447 5440 5435 5431 5430 5436 5447 5458 5467 5474 5478 5483 5489